TimePST,TemperatureF,Dew PointF,Humidity,Sea Level PressureIn,VisibilityMPH,Wind Direction,Wind SpeedMPH,Gust SpeedMPH,PrecipitationIn,Events,Conditions,WindDirDegrees,DateUTC
12:15 AM,30.2,26.6,86,29.97,10.0,ENE,4.6,-,N/A,,Clear,70,2012-11-08 08:15:00
12:35 AM,28.4,24.8,86,29.96,10.0,NE,6.9,-,N/A,,Clear,40,2012-11-08 08:35:00
12:55 AM,28.4,24.8,86,29.95,10.0,NE,5.8,-,N/A,,Clear,40,2012-11-08 08:55:00
1:15 AM,28.4,24.8,86,29.95,10.0,NNE,3.5,-,N/A,,Clear,30,2012-11-08 09:15:00
1:35 AM,28.4,24.8,86,29.94,10.0,ENE,5.8,-,N/A,,Clear,60,2012-11-08 09:35:00
1:55 AM,28.4,26.6,93,29.94,10.0,NE,9.2,-,N/A,,Clear,50,2012-11-08 09:55:00
2:15 AM,30.2,26.6,86,29.93,10.0,NE,8.1,-,N/A,,Clear,50,2012-11-08 10:15:00
2:35 AM,32.0,28.4,87,29.93,10.0,NE,11.5,-,N/A,,Clear,40,2012-11-08 10:35:00
2:55 AM,30.2,26.6,86,29.91,10.0,NE,11.5,-,N/A,,Clear,40,2012-11-08 10:55:00
3:15 AM,30.2,26.6,86,29.90,10.0,NE,9.2,-,N/A,,Clear,50,2012-11-08 11:15:00
3:35 AM,30.2,26.6,86,29.89,10.0,NE,12.7,-,N/A,,Clear,40,2012-11-08 11:35:00
3:55 AM,30.2,26.6,86,29.89,10.0,NE,11.5,-,N/A,,Clear,40,2012-11-08 11:55:00
4:15 AM,30.2,26.6,86,29.89,10.0,NNE,13.8,-,N/A,,Clear,30,2012-11-08 12:15:00
4:35 AM,32.0,28.4,87,29.88,10.0,NNE,18.4,-,N/A,,Clear,30,2012-11-08 12:35:00
4:55 AM,30.2,26.6,86,29.87,10.0,NE,12.7,-,N/A,,Clear,50,2012-11-08 12:55:00
5:15 AM,30.2,26.6,86,29.86,10.0,NE,13.8,-,N/A,,Clear,40,2012-11-08 13:15:00
5:35 AM,30.2,26.6,86,29.84,10.0,NE,13.8,-,N/A,,Clear,40,2012-11-08 13:35:00
5:55 AM,30.2,26.6,86,29.84,10.0,NE,13.8,-,N/A,,Clear,40,2012-11-08 13:55:00
6:15 AM,30.2,26.6,86,29.83,10.0,NNE,16.1,-,N/A,,Clear,30,2012-11-08 14:15:00
6:35 AM,30.2,26.6,86,29.81,10.0,NE,12.7,-,N/A,,Clear,40,2012-11-08 14:35:00
6:55 AM,30.2,26.6,86,29.80,10.0,NE,13.8,-,N/A,,Clear,40,2012-11-08 14:55:00
7:15 AM,30.2,26.6,86,29.80,10.0,NNE,13.8,-,N/A,,Clear,30,2012-11-08 15:15:00
7:35 AM,30.2,26.6,86,29.79,10.0,NNE,12.7,-,N/A,,Clear,30,2012-11-08 15:35:00
7:55 AM,30.2,26.6,86,29.78,10.0,NNE,11.5,-,N/A,,Clear,20,2012-11-08 15:55:00
8:15 AM,32.0,28.4,87,29.78,10.0,NNE,13.8,-,N/A,,Clear,30,2012-11-08 16:15:00
8:35 AM,33.8,28.4,81,29.77,10.0,NNE,13.8,-,N/A,,Clear,30,2012-11-08 16:35:00
8:55 AM,35.6,30.2,81,29.76,10.0,NNE,16.1,-,N/A,,Clear,30,2012-11-08 16:55:00
9:15 AM,35.6,30.2,81,29.75,10.0,NNE,17.3,-,N/A,,Clear,30,2012-11-08 17:15:00
9:35 AM,35.6,30.2,81,29.74,10.0,NNE,17.3,-,N/A,,Clear,30,2012-11-08 17:35:00
9:55 AM,37.4,30.2,75,29.74,10.0,NNE,15.0,-,N/A,,Clear,20,2012-11-08 17:55:00
10:15 AM,39.2,30.2,70,29.74,10.0,NNE,17.3,-,N/A,,Clear,30,2012-11-08 18:15:00
10:55 AM,39.2,30.2,70,29.72,10.0,NNE,16.1,-,N/A,,Clear,30,2012-11-08 18:55:00
11:15 AM,39.2,30.2,70,29.71,10.0,NNE,13.8,-,N/A,,Partly Cloudy,30,2012-11-08 19:15:00
11:35 AM,41.0,28.4,61,29.71,10.0,NNE,13.8,-,N/A,,Mostly Cloudy,30,2012-11-08 19:35:00
11:55 AM,41.0,28.4,61,29.70,10.0,NNE,13.8,-,N/A,,Overcast,30,2012-11-08 19:55:00
12:15 PM,41.0,28.4,61,29.70,10.0,NNE,17.3,-,N/A,,Overcast,20,2012-11-08 20:15:00
12:35 PM,41.0,28.4,61,29.70,10.0,NNE,12.7,-,N/A,,Overcast,20,2012-11-08 20:35:00
12:55 PM,41.0,26.6,57,29.69,10.0,NNE,13.8,-,N/A,,Overcast,30,2012-11-08 20:55:00
1:15 PM,42.8,26.6,53,29.68,10.0,NNE,13.8,-,N/A,,Overcast,30,2012-11-08 21:15:00
1:35 PM,42.8,26.6,53,29.68,10.0,NNE,12.7,-,N/A,,Overcast,30,2012-11-08 21:35:00
1:55 PM,42.8,28.4,57,29.68,10.0,ENE,12.7,-,N/A,,Overcast,60,2012-11-08 21:55:00
2:15 PM,41.0,28.4,61,29.68,10.0,East,15.0,-,N/A,,Overcast,90,2012-11-08 22:15:00
2:35 PM,41.0,26.6,57,29.69,10.0,ENE,10.4,-,N/A,,Overcast,60,2012-11-08 22:35:00
2:55 PM,39.2,28.4,65,29.70,10.0,NE,15.0,-,N/A,,Overcast,50,2012-11-08 22:55:00
3:15 PM,37.4,28.4,70,29.70,9.0,NNE,15.0,20.7,N/A,,Overcast,30,2012-11-08 23:15:00
3:35 PM,35.6,30.2,81,29.70,5.0,NE,16.1,23.0,N/A,,Overcast,40,2012-11-08 23:35:00
3:55 PM,35.6,30.2,81,29.71,9.0,NNE,15.0,19.6,0.01,,Overcast,30,2012-11-08 23:55:00
4:15 PM,35.6,30.2,81,29.70,10.0,NNE,15.0,-,N/A,,Overcast,20,2012-11-09 00:15:00
4:35 PM,35.6,30.2,81,29.70,10.0,NNE,16.1,20.7,N/A,,Overcast,30,2012-11-09 00:35:00
4:55 PM,33.8,30.2,87,29.69,10.0,NNE,18.4,-,N/A,,Mostly Cloudy,20,2012-11-09 00:55:00
5:15 PM,33.8,30.2,87,29.69,5.0,NNE,18.4,25.3,N/A,,Overcast,30,2012-11-09 01:15:00
5:35 PM,33.8,30.2,87,29.69,7.0,NNE,16.1,23.0,N/A,,Mostly Cloudy,30,2012-11-09 01:35:00
5:55 PM,33.8,30.2,87,29.70,3.0,NNE,17.3,-,N/A,,Mostly Cloudy,30,2012-11-09 01:55:00
6:15 PM,33.8,30.2,87,29.70,2.0,NNE,15.0,-,N/A,,Overcast,20,2012-11-09 02:15:00
6:35 PM,33.8,30.2,87,29.70,2.0,NNE,16.1,-,0.01,,Overcast,30,2012-11-09 02:35:00
6:55 PM,32.0,30.2,93,29.70,1.5,NNE,16.1,-,0.01,,Overcast,30,2012-11-09 02:55:00
7:15 PM,32.0,30.2,93,29.70,1.5,NNE,15.0,-,0.02,,Overcast,30,2012-11-09 03:15:00
7:35 PM,32.0,30.2,93,29.70,1.5,NNE,16.1,-,0.03,,Overcast,30,2012-11-09 03:35:00
7:55 PM,32.0,28.4,87,29.70,1.5,NNE,17.3,-,0.04,,Overcast,30,2012-11-09 03:55:00
8:15 PM,32.0,30.2,93,29.70,1.2,NNE,19.6,-,0.01,,Overcast,30,2012-11-09 04:15:00
8:35 PM,32.0,28.4,87,29.70,3.0,NNE,17.3,-,0.01,,Overcast,30,2012-11-09 04:35:00
8:55 PM,32.0,28.4,87,29.70,3.0,NNE,18.4,-,0.01,,Overcast,30,2012-11-09 04:55:00
9:15 PM,32.0,28.4,87,29.71,4.0,NNE,20.7,-,N/A,,Overcast,30,2012-11-09 05:15:00
9:35 PM,30.2,28.4,93,29.71,5.0,NNE,15.0,-,N/A,,Overcast,20,2012-11-09 05:35:00
9:55 PM,30.2,28.4,93,29.71,7.0,NNE,16.1,21.9,N/A,,Overcast,20,2012-11-09 05:55:00
10:15 PM,30.2,28.4,93,29.72,2.5,NNE,13.8,-,N/A,,Overcast,20,2012-11-09 06:15:00
10:35 PM,30.2,28.4,93,29.72,1.5,NNE,15.0,-,N/A,,Overcast,20,2012-11-09 06:35:00
10:55 PM,30.2,28.4,93,29.72,2.5,NNE,15.0,-,N/A,,Overcast,20,2012-11-09 06:55:00
11:15 PM,30.2,28.4,93,29.72,3.0,NNE,16.1,-,N/A,,Overcast,30,2012-11-09 07:15:00
11:35 PM,30.2,28.4,93,29.72,5.0,NNE,16.1,23.0,N/A,,Overcast,30,2012-11-09 07:35:00
11:55 PM,30.2,28.4,93,29.72,7.0,NNE,18.4,-,N/A,,Overcast,30,2012-11-09 07:55:00